Zurück zum Katalog

STARLINK-11280

AktivKommunikationVLEO
NORAD 61245·PAYLOAD·🇺🇸 United States

Gestartet Sep 25, 2024 von Vandenberg Space Force Base

Loading…

Nächste Überflüge (nächste 24 Stunden)

TLE

AktuellSource: CelesTrak SupGP

Epoche: Sep 14, 2026, 22:17 UTC

1 61245C 24175C   26257.92895833  .00032133  00000+0  26449-3 0  2572
2 61245  53.1571 203.2450 0001182 104.8766 147.9486 15.69711672    17

Verfolge STARLINK-11280 in Echtzeit mit AllMySat

Download on the App Store